| time (UTC) | temp C | wind direction | speed KPH | gust KPH | rain 1hr cm | rain 24hr cm | rain mn cm | humidity % | barometer mb |
| 20260507044200 | 19 | 0.0 | 0.0 | 0.00 | 0.00 | 0.00 | 49 | 1008.8 | |
| 20260507043159 | 19 | 0.0 | 0.0 | 0.00 | 0.00 | 0.00 | 49 | 1008.9 | |
| 20260507042159 | 18 | 0.0 | 0.0 | 0.00 | 0.00 | 0.00 | 50 | 1008.8 | |
| 20260507041204 | 18 | 0.0 | 0.0 | 0.00 | 0.00 | 0.00 | 49 | 1008.8 | |
| 20260507040204 | 18 | 0.0 | 0.0 | 0.00 | 0.00 | 0.00 | 49 | 1008.6 | |
| 20260507035159 | 19 | 0.0 | 0.0 | 0.00 | 0.00 | 0.00 | 49 | 1008.7 | |
| 20260507034159 | 19 | 0.0 | 0.0 | 0.00 | 0.00 | 0.00 | 48 | 1008.6 | |
| 20260507033159 | 19 | 0.0 | 0.0 | 0.00 | 0.00 | 0.00 | 49 | 1008.8 | |
| 20260507032204 | 19 | 0.0 | 0.0 | 0.00 | 0.00 | 0.00 | 48 | 1008.8 | |
| 20260507031204 | 19 | 0.0 | 0.0 | 0.00 | 0.00 | 0.00 | 48 | 1008.9 | |
| 20260507030159 | 19 | 0.0 | 0.0 | 0.00 | 0.00 | 0.00 | 49 | 1008.9 | |
| 20260507025159 | 19 | 0.0 | 0.0 | 0.00 | 0.00 | 0.00 | 48 | 1008.9 | |
| 20260507024204 | 19 | 0.0 | 0.0 | 0.00 | 0.00 | 0.00 | 48 | 1009.0 | |
| 20260507023159 | 19 | 0.0 | 0.0 | 0.00 | 0.00 | 0.00 | 49 | 1008.8 | |
| 20260507022159 | 19 | 0.0 | 0.0 | 0.00 | 0.00 | 0.00 | 49 | 1008.8 | |
| 20260507021204 | 19 | 0.0 | 0.0 | 0.00 | 0.00 | 0.00 | 50 | 1009.0 | |
| 20260507020159 | 20 | 0.0 | 0.0 | 0.00 | 0.00 | 0.00 | 49 | 1009.0 | |
| 20260507015159 | 19 | 0.0 | 0.0 | 0.00 | 0.00 | 0.00 | 50 | 1008.9 | |
| 20260507014159 | 19 | 0.0 | 0.0 | 0.00 | 0.00 | 0.00 | 50 | 1009.0 | |
| 20260507013159 | 19 | 0.0 | 0.0 | 0.00 | 0.00 | 0.00 | 50 | 1009.1 | |
| 20260507012159 | 20 | 0.0 | 0.0 | 0.00 | 0.00 | 0.00 | 49 | 1008.9 | |
| 20260507011159 | 19 | 0.0 | 0.0 | 0.00 | 0.00 | 0.00 | 50 | 1009.0 | |
| 20260507010159 | 19 | 0.0 | 0.0 | 0.00 | 0.00 | 0.00 | 50 | 1009.0 | |
| 20260507005159 | 19 | 0.0 | 0.0 | 0.00 | 0.00 | 0.00 | 51 | 1009.1 | |
| 20260507004204 | 19 | 0.0 | 0.0 | 0.00 | 0.00 | 0.00 | 50 | 1009.2 | |
| 20260507003159 | 19 | 0.0 | 0.0 | 0.00 | 0.00 | 0.00 | 52 | 1009.3 | |
| 20260507002158 | 20 | 0.0 | 0.0 | 0.00 | 0.00 | 0.00 | 51 | 1009.1 | |
| 20260507001158 | 20 | 0.0 | 0.0 | 0.00 | 0.00 | 0.00 | 51 | 1009.4 | |
| 20260507000159 | 20 | 0.0 | 0.0 | 0.00 | 0.00 | 0.00 | 51 | 1009.6 | |
| 20260506235158 | 20 | 0.0 | 0.0 | 0.00 | 0.00 | 0.00 | 53 | 1009.6 | |
| 20260506234158 | 20 | 0.0 | 0.0 | 0.00 | 0.00 | 0.00 | 54 | 1009.8 | |
| 20260506233159 | 20 | 0.0 | 0.0 | 0.00 | 0.00 | 0.00 | 54 | 1009.8 | |
| 20260506232159 | 21 | 0.0 | 0.0 | 0.00 | 0.00 | 0.00 | 56 | 1010.0 | |
| 20260506231159 | 21 | 0.0 | 0.0 | 0.00 | 0.00 | 0.00 | 57 | 1010.0 | |
| 20260506230158 | 21 | 0.0 | 0.0 | 0.00 | 0.00 | 0.00 | 58 | 1009.9 | |
| 20260506225204 | 20 | 0.0 | 0.0 | 0.00 | 0.00 | 0.00 | 62 | 1009.9 | |
| 20260506224158 | 21 | 0.0 | 0.0 | 0.00 | 0.00 | 0.00 | 61 | 1009.9 | |
| 20260506223158 | 21 | 0.0 | 0.0 | 0.00 | 0.00 | 0.00 | 61 | 1009.8 | |
| 20260506222158 | 20 | 0.0 | 0.0 | 0.00 | 0.00 | 0.00 | 61 | 1009.9 | |
| 20260506221204 | 20 | 0.0 | 0.0 | 0.00 | 0.00 | 0.00 | 61 | 1009.9 | |
| 20260506220158 | 20 | 0.0 | 0.0 | 0.00 | 0.00 | 0.00 | 61 | 1009.9 | |
| 20260506215158 | 21 | 0.0 | 0.0 | 0.00 | 0.00 | 0.00 | 59 | 1009.9 | |
| 20260506214158 | 21 | 0.0 | 0.0 | 0.00 | 0.00 | 0.00 | 61 | 1009.9 | |
| 20260506213158 | 20 | 0.0 | 0.0 | 0.00 | 0.00 | 0.00 | 62 | 1009.9 | |
| 20260506212158 | 21 | 0.0 | 0.0 | 0.00 | 0.00 | 0.00 | 60 | 1009.9 | |
| 20260506211203 | 21 | 0.0 | 0.0 | 0.00 | 0.00 | 0.00 | 61 | 1009.9 | |
| 20260506210158 | 21 | 0.0 | 0.0 | 0.00 | 0.00 | 0.00 | 60 | 1009.8 | |
| 20260506205158 | 20 | 0.0 | 0.0 | 0.00 | 0.00 | 0.00 | 61 | 1009.6 | |
| 20260506204158 | 21 | 0.0 | 0.0 | 0.00 | 0.00 | 0.00 | 59 | 1009.6 | |
| 20260506203158 | 20 | 0.0 | 0.0 | 0.00 | 0.00 | 0.00 | 61 | 1009.4 | |
| 20260506202158 | 20 | 0.0 | 0.0 | 0.00 | 0.00 | 0.00 | 62 | 1009.4 | |
| 20260506201158 | 20 | 0.0 | 0.0 | 0.00 | 0.00 | 0.00 | 62 | 1009.1 | |
| 20260506200158 | 20 | 0.0 | 0.0 | 0.00 | 0.00 | 0.00 | 63 | 1009.0 | |
| 20260506195203 | 20 | 0.0 | 0.0 | 0.00 | 0.00 | 0.00 | 62 | 1008.8 | |
| 20260506194158 | 20 | 0.0 | 0.0 | 0.00 | 0.00 | 0.00 | 61 | 1008.6 | |
| 20260506193158 | 20 | 0.0 | 0.0 | 0.00 | 0.00 | 0.00 | 61 | 1008.4 | |
| 20260506192158 | 20 | 0.0 | 0.0 | 0.00 | 0.00 | 0.00 | 60 | 1008.2 | |
| 20260506191203 | 20 | 0.0 | 0.0 | 0.00 | 0.00 | 0.00 | 63 | 1008.1 | |
| 20260506190157 | 20 | 0.0 | 0.0 | 0.00 | 0.00 | 0.00 | 68 | 1008.1 | |
| 20260506185158 | 21 | 0.0 | 0.0 | 0.00 | 0.00 | 0.00 | 63 | 1007.9 | |
| 20260506184157 | 21 | 0.0 | 0.0 | 0.00 | 0.00 | 0.00 | 63 | 1007.9 | |
| 20260506183202 | 21 | 0.0 | 0.0 | 0.00 | 0.00 | 0.00 | 63 | 1007.7 | |
| 20260506182202 | 21 | 0.0 | 0.0 | 0.00 | 0.00 | 0.00 | 61 | 1007.6 | |
| 20260506181158 | 21 | 0.0 | 0.0 | 0.00 | 0.00 | 0.00 | 60 | 1007.6 | |
| 20260506180158 | 21 | 0.0 | 0.0 | 0.00 | 0.00 | 0.00 | 62 | 1007.7 | |
| 20260506175157 | 21 | 0.0 | 0.0 | 0.00 | 0.00 | 0.00 | 60 | 1007.7 | |
| 20260506174158 | 21 | 0.0 | 0.0 | 0.00 | 0.00 | 0.00 | 60 | 1007.8 | |
| 20260506173158 | 21 | 0.0 | 0.0 | 0.00 | 0.00 | 0.00 | 61 | 1008.0 | |
| 20260506172157 | 21 | 0.0 | 0.0 | 0.00 | 0.00 | 0.00 | 60 | 1008.1 | |
| 20260506171158 | 21 | 0.0 | 0.0 | 0.00 | 0.00 | 0.00 | 61 | 1008.1 | |
| 20260506170158 | 21 | 0.0 | 0.0 | 0.00 | 0.00 | 0.00 | 58 | 1008.2 | |
| 20260506165157 | 22 | 0.0 | 0.0 | 0.00 | 0.00 | 0.00 | 56 | 1008.1 | |
| 20260506164158 | 23 | 0.0 | 0.0 | 0.00 | 0.00 | 0.00 | 53 | 1008.0 | |
| 20260506163157 | 23 | 0.0 | 0.0 | 0.00 | 0.00 | 0.00 | 53 | 1008.1 | |
| 20260506162157 | 23 | 0.0 | 0.0 | 0.00 | 0.00 | 0.00 | 52 | 1008.1 | |
| 20260506161157 | 24 | 0.0 | 0.0 | 0.00 | 0.00 | 0.00 | 50 | 1008.1 | |
| 20260506160157 | 23 | 0.0 | 0.0 | 0.00 | 0.00 | 0.00 | 52 | 1008.0 | |
| 20260506155157 | 23 | 0.0 | 0.0 | 0.00 | 0.00 | 0.00 | 51 | 1008.0 | |
| 20260506154157 | 23 | 0.0 | 0.0 | 0.00 | 0.00 | 0.00 | 51 | 1008.1 | |
| 20260506153157 | 23 | 0.0 | 0.0 | 0.00 | 0.00 | 0.00 | 51 | 1008.1 | |
| 20260506152157 | 24 | 0.0 | 0.0 | 0.00 | 0.00 | 0.00 | 48 | 1008.1 | |
| 20260506151157 | 25 | 0.0 | 0.0 | 0.00 | 0.00 | 0.00 | 47 | 1008.3 | |
| 20260506150202 | 25 | 0.0 | 0.0 | 0.00 | 0.00 | 0.00 | 44 | 1008.3 | |
| 20260506145202 | 25 | 0.0 | 0.0 | 0.00 | 0.00 | 0.00 | 41 | 1008.6 | |
| 20260506144202 | 25 | 0.0 | 0.0 | 0.00 | 0.00 | 0.00 | 36 | 1008.7 | |
| 20260506143157 | 26 | 0.0 | 0.0 | 0.00 | 0.00 | 0.00 | 33 | 1008.6 | |
| 20260506142202 | 26 | 0.0 | 0.0 | 0.00 | 0.00 | 0.00 | 32 | 1008.8 | |
| 20260506141157 | 26 | 0.0 | 0.0 | 0.00 | 0.00 | 0.00 | 33 | 1008.9 | |
| 20260506140157 | 26 | 0.0 | 0.0 | 0.00 | 0.00 | 0.00 | 35 | 1009.1 | |
| 20260506135157 | 26 | 0.0 | 0.0 | 0.00 | 0.00 | 0.00 | 33 | 1009.0 | |
| 20260506134159 | 26 | 0.0 | 0.0 | 0.00 | 0.00 | 0.00 | 31 | 1009.0 | |
| 20260506133202 | 26 | 0.0 | 0.0 | 0.00 | 0.00 | 0.00 | 34 | 1009.0 | |
| 20260506132157 | 26 | 0.0 | 0.0 | 0.00 | 0.00 | 0.00 | 32 | 1008.9 | |
| 20260506131157 | 27 | 0.0 | 0.0 | 0.00 | 0.00 | 0.00 | 29 | 1008.8 | |
| 20260506130157 | 26 | 0.0 | 0.0 | 0.00 | 0.00 | 0.00 | 31 | 1008.9 | |
| 20260506125157 | 26 | 0.0 | 0.0 | 0.00 | 0.00 | 0.00 | 30 | 1009.0 | |
| 20260506124202 | 27 | 0.0 | 0.0 | 0.00 | 0.00 | 0.00 | 29 | 1008.9 | |
| 20260506123156 | 26 | 0.0 | 0.0 | 0.00 | 0.00 | 0.00 | 31 | 1009.2 | |
| 20260506122156 | 25 | 0.0 | 0.0 | 0.00 | 0.00 | 0.00 | 32 | 1009.3 | |
| 20260506121156 | 25 | 0.0 | 0.0 | 0.00 | 0.00 | 0.00 | 35 | 1009.2 | |
| 20260506120157 | 26 | 0.0 | 0.0 | 0.00 | 0.00 | 0.00 | 35 | 1009.2 | |
| 20260506115157 | 26 | 0.0 | 0.0 | 0.00 | 0.00 | 0.00 | 34 | 1009.3 | |
| 20260506114156 | 25 | 0.0 | 0.0 | 0.00 | 0.00 | 0.00 | 38 | 1009.3 | |
| 20260506113157 | 25 | 0.0 | 0.0 | 0.00 | 0.00 | 0.00 | 36 | 1009.2 | |
| 20260506112157 | 26 | 0.0 | 0.0 | 0.00 | 0.00 | 0.00 | 38 | 1009.2 | |
| 20260506111156 | 25 | 0.0 | 0.0 | 0.00 | 0.00 | 0.00 | 38 | 1009.4 | |
| 20260506110156 | 24 | 0.0 | 0.0 | 0.00 | 0.00 | 0.00 | 43 | 1009.3 | |
| 20260506105156 | 24 | 0.0 | 0.0 | 0.00 | 0.00 | 0.00 | 45 | 1009.4 | |
| 20260506104157 | 24 | 0.0 | 0.0 | 0.00 | 0.00 | 0.00 | 48 | 1009.5 | |
| 20260506103156 | 22 | 0.0 | 0.0 | 0.00 | 0.00 | 0.00 | 46 | 1009.5 | |
| 20260506102156 | 22 | 0.0 | 0.0 | 0.00 | 0.00 | 0.00 | 40 | 1009.6 | |
| 20260506101201 | 23 | 0.0 | 0.0 | 0.00 | 0.00 | 0.00 | 38 | 1009.7 | |
| 20260506100201 | 24 | 0.0 | 0.0 | 0.00 | 0.00 | 0.00 | 38 | 1009.6 | |
| 20260506095156 | 23 | 0.0 | 0.0 | 0.00 | 0.00 | 0.00 | 38 | 1009.6 | |
| 20260506094201 | 24 | 0.0 | 0.0 | 0.00 | 0.00 | 0.00 | 40 | 1009.7 | |
| 20260506093156 | 23 | 0.0 | 0.0 | 0.00 | 0.00 | 0.00 | 42 | 1009.6 | |
| 20260506092156 | 24 | 0.0 | 0.0 | 0.00 | 0.00 | 0.00 | 40 | 1009.5 | |
| 20260506091201 | 24 | 0.0 | 0.0 | 0.00 | 0.00 | 0.00 | 38 | 1009.5 | |
| 20260506090156 | 23 | 0.0 | 0.0 | 0.00 | 0.00 | 0.00 | 40 | 1009.5 | |
| 20260506085156 | 23 | 0.0 | 0.0 | 0.00 | 0.00 | 0.00 | 39 | 1009.6 | |
| 20260506084156 | 22 | 0.0 | 0.0 | 0.00 | 0.00 | 0.00 | 40 | 1009.5 | |
| 20260506083156 | 23 | 0.0 | 0.0 | 0.00 | 0.00 | 0.00 | 38 | 1009.5 | |
| 20260506082201 | 23 | 0.0 | 0.0 | 0.00 | 0.00 | 0.00 | 38 | 1009.3 | |
| 20260506081201 | 23 | 0.0 | 0.0 | 0.00 | 0.00 | 0.00 | 37 | 1009.3 | |
| 20260506080156 | 24 | 0.0 | 0.0 | 0.00 | 0.00 | 0.00 | 29 | 1009.3 | |
| 20260506073156 | 25 | 0.0 | 0.0 | 0.00 | 0.00 | 0.00 | 26 | 1009.0 | |
| 20260506072201 | 23 | 0.0 | 0.0 | 0.00 | 0.00 | 0.00 | 28 | 1009.0 |